Chapmantown, California
Current Conditions -  °F | °C
As of 7:47 AM on Friday 24 Oct 2014 (Local Time) from KCIC Reporting Station
Scattered Clouds Scattered Clouds  
Wind Chill: 50°   Ceiling: Unl
Heat Index: 50°   Visibility: 25mi
Dew Point: 48°   Wind: 0mph
Humidity: 94%   Direction: NA
Pressure: 29.98"   Gusts: NA
Location:  39.71°N, 121.809°W
Report Text: KCIC 241447Z 00000KT 25SM FEW010 SCT150 10/09 A2998 RMK MIFG E AND S-SW
Loading
Personal Weather Stations






























Interactive Weather Map
Tropical Storm Tracking
New forecast layout! Learn more

10-Day Weather Forecast

Advertisements
Track Severe Weather on mobile